CW4588 Weather Reports


Display with metric or nautical units.
time (UTC)temp
F
wind
direction
speed
MPH
gust
MPH
rain 1hr
in
rain 24hr
in
rain mn
in
humidity
%
barometer
mb
20260509051046 48 326 1.0 0.0 0.00 0.00 0.00 48 1023.9
20260509050049 46 326 0.0 0.0 0.00 0.00 0.00 54 1023.9
20260509045529 44 326 0.0 0.0 0.00 0.00 0.00 56 1023.9
20260509045038 43 326 0.0 0.0 0.00 0.00 0.00 58 1023.9
20260509044539 42 326 0.0 0.0 0.00 0.00 0.00 61 1023.9
20260509044023 41 326 1.0 0.0 0.00 0.00 0.00 62 1024.0
20260509043538 40 323 1.0 0.0 0.00 0.00 0.00 65 1023.9
20260509043024 39 322 0.0 0.0 0.00 0.00 0.00 67 1024.0
20260509042043 36 322 0.0 0.0 0.00 0.00 0.00 72 1024.0
20260509040523 33 322 0.0 0.0 0.00 0.00 0.00 77 1024.0
20260509032544 30 322 0.0 0.0 0.00 0.00 0.00 84 1023.9
20260509031534 29 322 0.0 0.0 0.00 0.00 0.00 83 1024.0
20260509030045 29 322 0.0 0.0 0.00 0.00 0.00 83 1024.0
20260509025531 29 322 0.0 0.0 0.00 0.00 0.00 83 1024.1
20260509025059 29 322 0.0 0.0 0.00 0.00 0.00 82 1024.1
20260509024734 29 322 0.0 0.0 0.00 0.00 0.00 82 1024.1
20260509023532 29 322 0.0 0.0 0.00 0.00 0.00 81 1024.0
20260509023217 29 322 0.0 0.0 0.00 0.00 0.00 81 1024.0
20260509022815 29 322 0.0 0.0 0.00 0.00 0.00 81 1024.0
20260509022048 29 322 0.0 0.0 0.00 0.00 0.00 80 1024.0
20260509021040 30 322 0.0 0.0 0.00 0.00 0.00 80 1023.9
20260509020537 30 322 0.0 0.0 0.00 0.00 0.00 80 1023.9
20260509020040 30 322 0.0 0.0 0.00 0.00 0.00 80 1023.9
20260509015526 30 322 0.0 0.0 0.00 0.00 0.00 80 1023.9
20260509015048 30 322 0.0 0.0 0.00 0.00 0.00 80 1023.9
20260509014037 30 322 0.0 0.0 0.00 0.00 0.00 80 1023.9
20260509013527 30 322 0.0 0.0 0.00 0.00 0.00 80 1023.9
20260509013044 30 322 0.0 0.0 0.00 0.00 0.00 80 1023.9
20260509012525 29 322 0.0 0.0 0.00 0.00 0.00 81 1024.0
20260509012035 29 322 0.0 0.0 0.00 0.00 0.00 81 1024.0
20260509011530 29 322 0.0 0.0 0.00 0.00 0.00 81 1024.0
20260509011021 29 322 0.0 0.0 0.00 0.00 0.00 81 1024.0
20260509010523 29 322 0.0 0.0 0.00 0.00 0.00 81 1024.0
20260509010039 29 322 0.0 0.0 0.00 0.00 0.00 81 1024.0
20260509005523 29 322 0.0 0.0 0.00 0.00 0.00 81 1024.1
20260509005037 29 322 0.0 0.0 0.00 0.00 0.00 81 1024.1
20260509004546 29 322 0.0 0.0 0.00 0.00 0.00 80 1024.0
20260509004042 29 322 0.0 0.0 0.00 0.00 0.00 80 1024.0
20260509003532 30 322 0.0 0.0 0.00 0.00 0.00 80 1024.0
20260509003100 30 322 0.0 0.0 0.00 0.00 0.00 80 1024.0
20260509002524 30 322 0.0 0.0 0.00 0.00 0.00 80 1024.0
20260509002057 30 322 0.0 0.0 0.00 0.00 0.00 79 1024.0
20260509001523 30 322 0.0 0.0 0.00 0.00 0.00 79 1024.0
20260509001040 30 322 0.0 0.0 0.00 0.00 0.00 78 1024.0
20260509000527 30 322 0.0 0.0 0.00 0.00 0.00 78 1024.0
20260509000029 30 322 0.0 0.0 0.00 0.00 0.00 78 1024.2
20260508235522 30 322 0.0 0.0 0.00 0.00 0.00 78 1024.2
20260508235040 30 322 0.0 0.0 0.00 0.00 0.00 77 1024.2
20260508234526 30 322 0.0 0.0 0.00 0.00 0.00 77 1024.2
20260508234101 30 322 0.0 0.0 0.00 0.00 0.00 76 1024.2
20260508233530 31 322 0.0 0.0 0.00 0.00 0.00 76 1024.2
20260508233051 31 322 0.0 0.0 0.00 0.00 0.00 76 1024.2
20260508232539 31 322 0.0 0.0 0.00 0.00 0.00 76 1024.2
20260508232023 31 322 0.0 0.0 0.00 0.00 0.00 76 1024.2
20260508231530 31 322 0.0 0.0 0.00 0.00 0.00 75 1024.3
20260508231024 31 322 0.0 0.0 0.00 0.00 0.00 75 1024.3
20260508230533 31 322 0.0 0.0 0.00 0.00 0.00 75 1024.3
20260508230037 32 322 0.0 0.0 0.00 0.00 0.00 74 1024.3
20260508225522 32 322 0.0 0.0 0.00 0.00 0.00 73 1024.2
20260508225031 32 322 0.0 0.0 0.00 0.00 0.00 73 1024.2
20260508224528 32 322 0.0 0.0 0.00 0.00 0.00 73 1024.2
20260508224033 32 322 0.0 0.0 0.00 0.00 0.00 72 1024.2
20260508223522 33 322 0.0 0.0 0.00 0.00 0.00 72 1024.2
20260508223024 33 322 0.0 0.0 0.00 0.00 0.00 71 1024.2
20260508222541 33 322 0.0 0.0 0.00 0.00 0.00 71 1024.2
20260508222027 33 322 0.0 0.0 0.00 0.00 0.00 71 1024.2
20260508221534 33 322 0.0 0.0 0.00 0.00 0.00 70 1024.2
20260508221048 34 322 0.0 0.0 0.00 0.00 0.00 69 1024.3
20260508220556 34 322 0.0 0.0 0.00 0.00 0.00 68 1024.3
20260508220049 34 322 0.0 0.0 0.00 0.00 0.00 68 1024.3
20260508215543 34 322 0.0 0.0 0.00 0.00 0.00 68 1024.2
20260508215030 35 322 0.0 0.0 0.00 0.00 0.00 68 1024.2
20260508214535 35 322 0.0 0.0 0.00 0.00 0.00 68 1024.2
20260508214029 35 322 0.0 0.0 0.00 0.00 0.00 68 1024.2
20260508213539 35 322 0.0 0.0 0.00 0.00 0.00 66 1024.2
20260508213022 35 322 0.0 0.0 0.00 0.00 0.00 65 1024.1
20260508212556 36 322 0.0 0.0 0.00 0.00 0.00 64 1024.1
20260508212020 36 322 0.0 0.0 0.00 0.00 0.00 65 1024.1
20260508211551 36 322 0.0 0.0 0.00 0.00 0.00 65 1023.9
20260508211029 36 322 0.0 0.0 0.00 0.00 0.00 65 1023.9
20260508210601 37 322 0.0 0.0 0.00 0.00 0.00 64 1023.9
20260508210029 37 322 0.0 0.0 0.00 0.00 0.00 64 1023.9
20260508205600 37 322 0.0 0.0 0.00 0.00 0.00 63 1023.9
20260508205026 37 322 0.0 0.0 0.00 0.00 0.00 63 1023.9
20260508204548 38 322 0.0 0.0 0.00 0.00 0.00 61 1023.9
20260508204035 38 322 0.0 0.0 0.00 0.00 0.00 61 1023.8
20260508203605 38 322 0.0 0.0 0.00 0.00 0.00 60 1023.8
20260508203025 39 322 0.0 0.0 0.00 0.00 0.00 60 1023.8
20260508202527 39 322 0.0 0.0 0.00 0.00 0.00 58 1023.8
20260508202100 40 322 0.0 0.0 0.00 0.00 0.00 57 1023.8
20260508201053 40 322 0.0 0.0 0.00 0.00 0.00 54 1023.7
20260508200549 41 322 0.0 0.0 0.00 0.00 0.00 53 1023.7
20260508195521 41 322 0.0 0.0 0.00 0.00 0.00 52 1023.5
20260508195027 42 322 0.0 0.0 0.00 0.00 0.00 51 1023.5
20260508194539 42 322 0.0 0.0 0.00 0.00 0.00 50 1023.5
20260508193026 44 322 0.0 0.0 0.00 0.00 0.00 47 1023.3
20260508192528 45 322 0.0 0.0 0.00 0.00 0.00 47 1023.3
20260508192048 45 322 0.0 0.0 0.00 0.00 0.00 45 1023.3
20260508191536 46 322 0.0 0.0 0.00 0.00 0.00 43 1023.3
20260508191047 47 322 0.0 0.0 0.00 0.00 0.00 42 1023.1
20260508190524 47 322 0.0 0.0 0.00 0.00 0.00 42 1023.1
20260508190032 48 322 0.0 0.0 0.00 0.00 0.00 41 1022.9
20260508185530 49 322 0.0 0.0 0.00 0.00 0.00 40 1022.9
20260508185032 49 322 0.0 0.0 0.00 0.00 0.00 36 1022.9
20260508184540 50 322 0.0 0.0 0.00 0.00 0.00 33 1022.9
20260508184044 51 322 0.0 0.0 0.00 0.00 0.00 31 1022.9
20260508183532 51 322 0.0 0.0 0.00 0.00 0.00 30 1022.9
20260508183018 52 322 0.0 0.0 0.00 0.00 0.00 29 1022.8
20260508182537 52 322 0.0 0.0 0.00 0.00 0.00 28 1022.8
20260508182025 53 322 1.0 0.0 0.00 0.00 0.00 28 1022.8
20260508181558 53 322 1.0 0.0 0.00 0.00 0.00 27 1022.8
20260508181033 53 322 2.0 0.0 0.00 0.00 0.00 26 1022.8
20260508180521 53 322 1.0 0.0 0.00 0.00 0.00 26 1022.8
20260508180027 53 322 1.0 0.0 0.00 0.00 0.00 25 1022.8
20260508175544 54 322 2.0 0.0 0.00 0.00 0.00 25 1022.8
20260508175036 54 322 2.0 0.0 0.00 0.00 0.00 25 1022.8
20260508174524 54 323 2.0 0.0 0.00 0.00 0.00 25 1022.6
20260508174025 54 330 2.0 0.0 0.00 0.00 0.00 25 1022.6
20260508173535 55 331 2.0 0.0 0.00 0.00 0.00 25 1022.6
20260508173024 55 331 2.0 0.0 0.00 0.00 0.00 23 1022.4
20260508172533 55 333 3.0 0.0 0.00 0.00 0.00 24 1022.4
20260508172052 56 333 3.0 0.0 0.00 0.00 0.00 24 1022.4
20260508171520 55 333 2.0 0.0 0.00 0.00 0.00 24 1022.4
20260508171038 56 264 1.0 0.0 0.00 0.00 0.00 24 1022.4
20260508170547 56 250 2.0 0.0 0.00 0.00 0.00 24 1022.4
20260508170048 56 250 3.0 0.0 0.00 0.00 0.00 24 1022.4
20260508165533 57 324 2.0 0.0 0.00 0.00 0.00 24 1022.4
20260508165023 57 329 1.0 0.0 0.00 0.00 0.00 23 1022.4
20260508164526 57 336 0.0 0.0 0.00 0.00 0.00 22 1022.3
20260508164035 57 336 2.0 0.0 0.00 0.00 0.00 22 1022.3
20260508163526 58 336 4.0 0.0 0.00 0.00 0.00 23 1022.3
20260508163022 58 312 3.0 0.0 0.00 0.00 0.00 22 1022.3
20260508162534 58 279 3.0 0.0 0.00 0.00 0.00 23 1022.3
20260508162039 58 255 3.0 0.0 0.00 0.00 0.00 21 1022.3
20260508161528 58 319 4.0 0.0 0.00 0.00 0.00 22 1022.3
20260508161035 58 331 4.0 0.0 0.00 0.00 0.00 21 1022.3
20260508160548 58 357 2.0 0.0 0.00 0.00 0.00 21 1022.3
20260508160040 58 302 0.0 0.0 0.00 0.00 0.00 22 1022.3
20260508155534 58 247 3.0 0.0 0.00 0.00 0.00 22 1022.3
20260508155043 58 247 4.0 0.0 0.00 0.00 0.00 23 1022.3
20260508154529 58 261 3.0 0.0 0.00 0.00 0.00 21 1022.2
20260508154023 58 254 4.0 0.0 0.00 0.00 0.00 21 1022.2
20260508153534 57 250 4.0 0.0 0.00 0.00 0.00 20 1022.2
20260508153043 57 259 4.0 0.0 0.00 0.00 0.00 21 1022.2
20260508152541 57 224 4.0 0.0 0.00 0.00 0.00 21 1022.2
20260508152028 57 217 5.0 0.0 0.00 0.00 0.00 21 1022.2
20260508151536 57 275 4.0 0.0 0.00 0.00 0.00 19 1022.2
20260508151056 57 255 2.0 0.0 0.00 0.00 0.00 21 1022.1
20260508150538 57 244 2.0 0.0 0.00 0.00 0.00 19 1022.1
20260508150041 57 285 3.0 0.0 0.00 0.00 0.00 19 1022.1
20260508145521 57 316 4.0 0.0 0.00 0.00 0.00 19 1022.2
20260508145030 57 269 5.0 0.0 0.00 0.00 0.00 20 1022.2
20260508144543 57 248 4.0 0.0 0.00 0.00 0.00 21 1022.0
20260508144038 57 326 4.0 0.0 0.00 0.00 0.00 21 1022.0
20260508143525 57 265 6.0 0.0 0.00 0.00 0.00 20 1022.0
20260508143104 57 282 5.0 0.0 0.00 0.00 0.00 22 1022.0
20260508142522 57 313 5.0 0.0 0.00 0.00 0.00 20 1022.0
20260508142028 57 338 5.0 0.0 0.00 0.00 0.00 22 1022.0
20260508141535 57 360 4.0 0.0 0.00 0.00 0.00 22 1022.0
20260508141030 58 305 4.0 0.0 0.00 0.00 0.00 21 1022.2
20260508140610 58 292 3.0 0.0 0.00 0.00 0.00 21 1022.2
20260508135537 58 244 3.0 0.0 0.00 0.00 0.00 22 1022.2
20260508135038 58 319 4.0 0.0 0.00 0.00 0.00 22 1022.2
20260508134600 59 251 6.0 0.0 0.00 0.00 0.00 21 1022.3
20260508133621 59 306 5.0 0.0 0.00 0.00 0.00 21 1022.3
20260508133538 59 306 5.0 0.0 0.00 0.00 0.00 21 1022.3
20260508133029 60 337 6.0 0.0 0.00 0.00 0.00 21 1022.3
20260508132533 60 327 3.0 0.0 0.00 0.00 0.00 20 1022.3
20260508132049 60 231 2.0 0.0 0.00 0.00 0.00 21 1022.3
20260508131531 60 200 2.0 0.0 0.00 0.00 0.00 23 1022.4
20260508131020 60 200 3.0 0.0 0.00 0.00 0.00 25 1022.4
20260508130525 60 218 3.0 0.0 0.00 0.00 0.00 23 1022.4
20260508130040 60 199 3.0 0.0 0.00 0.00 0.00 26 1022.4
20260508125523 59 242 2.0 0.0 0.00 0.00 0.00 26 1022.4
20260508125027 58 309 2.0 0.0 0.00 0.00 0.00 25 1022.4
20260508124542 57 203 2.0 0.0 0.00 0.00 0.00 24 1022.4
20260508124027 57 203 4.0 0.0 0.00 0.00 0.00 26 1022.4
20260508123535 57 247 4.0 0.0 0.00 0.00 0.00 24 1022.4
20260508123029 58 283 5.0 0.0 0.00 0.00 0.00 24 1022.4
20260508122537 58 326 7.0 0.0 0.00 0.00 0.00 25 1022.4
20260508122050 58 312 3.0 0.0 0.00 0.00 0.00 23 1022.4
20260508121550 58 227 1.0 0.0 0.00 0.00 0.00 27 1022.5
20260508121037 58 247 2.0 0.0 0.00 0.00 0.00 23 1022.5
20260508120537 59 247 3.0 0.0 0.00 0.00 0.00 24 1022.5
20260508120022 60 320 4.0 0.0 0.00 0.00 0.00 23 1022.6
20260508115541 60 197 4.0 0.0 0.00 0.00 0.00 24 1022.6
20260508115030 61 265 4.0 0.0 0.00 0.00 0.00 22 1022.6
20260508114539 61 285 3.0 0.0 0.00 0.00 0.00 22 1022.6
20260508114030 61 282 3.0 0.0 0.00 0.00 0.00 22 1022.6
20260508113602 61 218 3.0 0.0 0.00 0.00 0.00 28 1022.6
20260508113026 60 189 3.0 0.0 0.00 0.00 0.00 29 1022.7
20260508112540 59 265 3.0 0.0 0.00 0.00 0.00 25 1022.7
20260508112046 59 197 3.0 0.0 0.00 0.00 0.00 25 1022.7
20260508111543 59 259 3.0 0.0 0.00 0.00 0.00 25 1022.7
20260508111028 59 309 2.0 0.0 0.00 0.00 0.00 26 1022.6
20260508110539 58 180 2.0 0.0 0.00 0.00 0.00 26 1022.6
20260508110043 57 176 2.0 0.0 0.00 0.00 0.00 26 1022.6
20260508105530 56 217 2.0 0.0 0.00 0.00 0.00 26 1022.6
20260508105046 56 347 3.0 0.0 0.00 0.00 0.00 25 1022.6
20260508104535 56 343 5.0 0.0 0.00 0.00 0.00 28 1022.6
20260508104044 57 319 6.0 0.0 0.00 0.00 0.00 27 1022.5
20260508103541 58 322 7.0 0.0 0.00 0.00 0.00 27 1022.5
20260508103029 59 331 5.0 0.0 0.00 0.00 0.00 29 1022.5
20260508102535 59 292 4.0 0.0 0.00 0.00 0.00 26 1022.5
20260508102047 59 31 5.0 0.0 0.00 0.00 0.00 24 1022.5
20260508101531 59 289 3.0 0.0 0.00 0.00 0.00 27 1022.5
20260508101037 58 204 4.0 0.0 0.00 0.00 0.00 27 1022.5
20260508100559 58 202 4.0 0.0 0.00 0.00 0.00 27 1022.5
20260508100029 57 200 2.0 0.0 0.00 0.00 0.00 30 1022.5
20260508095521 57 252 3.0 0.0 0.00 0.00 0.00 28 1022.5
20260508095101 57 210 4.0 0.0 0.00 0.00 0.00 27 1022.5
20260508094531 57 300 6.0 0.0 0.00 0.00 0.00 27 1022.4
20260508094021 57 316 4.0 0.0 0.00 0.00 0.00 27 1022.4
20260508093538 57 355 4.0 0.0 0.00 0.00 0.00 29 1022.4
20260508093044 56 343 4.0 0.0 0.00 0.00 0.00 31 1022.4
20260508092603 56 251 4.0 0.0 0.00 0.00 0.00 27 1022.4
20260508092030 56 244 6.0 0.0 0.00 0.00 0.00 28 1022.4
20260508091535 56 210 6.0 0.0 0.00 0.00 0.00 28 1022.4
20260508091035 56 314 6.0 0.0 0.00 0.00 0.00 27 1022.4
20260508090545 55 282 7.0 0.0 0.00 0.00 0.00 27 1022.4
20260508090031 55 292 7.0 0.0 0.00 0.00 0.00 28 1022.4
20260508085517 55 307 7.0 0.0 0.00 0.00 0.00 27 1022.4
20260508085037 55 283 6.0 0.0 0.00 0.00 0.00 28 1022.4
20260508084525 55 290 5.0 0.0 0.00 0.00 0.00 28 1022.3
20260508084047 55 259 6.0 0.0 0.00 0.00 0.00 27 1022.3
20260508083541 54 310 7.0 0.0 0.00 0.00 0.00 27 1022.3
20260508083031 54 343 7.0 0.0 0.00 0.00 0.00 28 1022.3
20260508082527 54 264 6.0 0.0 0.00 0.00 0.00 28 1022.3
20260508082043 54 340 5.0 0.0 0.00 0.00 0.00 28 1022.3
20260508081602 54 330 6.0 0.0 0.00 0.00 0.00 27 1022.3
20260508081027 54 314 6.0 0.0 0.00 0.00 0.00 28 1022.2
20260508080539 54 307 6.0 0.0 0.00 0.00 0.00 31 1022.2
20260508080027 54 271 5.0 0.0 0.00 0.00 0.00 29 1022.1
20260508075530 54 231 5.0 0.0 0.00 0.00 0.00 32 1022.1
20260508075039 53 282 6.0 0.0 0.00 0.00 0.00 31 1022.1
20260508074537 53 319 6.0 0.0 0.00 0.00 0.00 30 1022.2
20260508074020 53 296 4.0 0.0 0.00 0.00 0.00 36 1021.9
20260508073530 53 314 6.0 0.0 0.00 0.00 0.00 38 1021.9
20260508073028 53 285 4.0 0.0 0.00 0.00 0.00 36 1021.8
20260508072531 53 252 3.0 0.0 0.00 0.00 0.00 48 1021.8
20260508072035 53 281 4.0 0.0 0.00 0.00 0.00 44 1021.8
20260508071530 52 293 3.0 0.0 0.00 0.00 0.00 47 1021.7
20260508071059 52 228 2.0 0.0 0.00 0.00 0.00 48 1021.7
20260508070523 52 278 3.0 0.0 0.00 0.00 0.00 51 1021.7
20260508070101 52 285 4.0 0.0 0.00 0.00 0.00 51 1021.7
20260508065527 52 247 2.0 0.0 0.00 0.00 0.00 53 1021.5
20260508065044 52 317 1.0 0.0 0.00 0.00 0.00 55 1021.5
20260508064527 51 210 1.0 0.0 0.00 0.00 0.00 57 1021.5
20260508064032 51 210 2.0 0.0 0.00 0.00 0.00 58 1021.5
20260508063537 50 203 1.0 0.0 0.00 0.00 0.00 61 1021.5
20260508063025 50 218 2.0 0.0 0.00 0.00 0.00 59 1021.3
20260508062524 50 218 1.0 0.0 0.00 0.00 0.00 59 1021.3
20260508062055 50 204 0.0 0.0 0.00 0.00 0.00 61 1021.3
20260508061520 49 204 1.0 0.0 0.00 0.00 0.00 60 1021.2
20260508061037 49 204 1.0 0.0 0.00 0.00 0.00 61 1021.2
20260508060522 49 204 1.0 0.0 0.00 0.00 0.00 62 1021.2
20260508060055 49 203 1.0 0.0 0.00 0.00 0.00 64 1021.2
20260508055539 48 204 1.0 0.0 0.00 0.00 0.00 67 1021.0
20260508055043 48 203 1.0 0.0 0.00 0.00 0.00 68 1021.0
20260508054536 47 204 1.0 0.0 0.00 0.00 0.00 70 1021.0
20260508054021 46 200 1.0 0.0 0.00 0.00 0.00 70 1020.8
20260508053527 46 200 1.0 0.0 0.00 0.00 0.00 72 1020.8
20260508053021 46 200 2.0 0.0 0.00 0.00 0.00 72 1020.6
20260508052526 45 194 1.0 0.0 0.00 0.00 0.00 73 1020.6
20260508052029 45 217 1.0 0.0 0.00 0.00 0.00 75 1020.6